Location: Hilton Head Island
(32.2163°N, 80.7526°W)
Time: 04:04:02
(UTC-05:00)

S-56A Canister/Altair - Visible Passes

Search period start: 16 February 2026 00:00
Search period end: 26 February 2026 00:00
Orbit: 632 x 2485 km, 38.9° (Epoch: 15 February)

Date Brightness Start Highest point End Pass type
(mag) Time Alt. Az. Time Alt. Az. Time Alt. Az.
16 Feb 10.2 02:55:32 36° ENE 02:55:32 36° ENE 03:02:29 10° E visible
16 Feb 9.3 04:52:47 45° WNW 04:57:00 87° NNE 05:11:03 10° ESE visible
17 Feb 10.8 02:22:36 22° ENE 02:22:36 22° ENE 02:26:16 10° E visible
17 Feb 9.1 04:19:52 68° NW 04:21:29 81° NNE 04:34:54 10° ESE visible
17 Feb 10.0 06:17:07 12° WNW 06:27:15 52° SW 06:41:09 10° SE visible
18 Feb 11.3 01:49:44 11° ENE 01:49:44 11° ENE 01:50:09 10° ENE visible
18 Feb 9.2 03:46:59 71° ENE 03:46:59 71° ENE 03:58:42 10° ESE visible
18 Feb 9.7 05:44:15 22° WNW 05:51:41 58° SSW 06:05:29 10° SE visible
19 Feb 9.8 03:14:10 46° E 03:14:10 46° E 03:22:30 10° E visible
19 Feb 9.4 05:11:26 37° W 05:16:09 63° SSW 05:29:42 10° SE visible
20 Feb 10.5 02:41:24 27° E 02:41:24 27° E 02:46:18 10° E visible
20 Feb 9.0 04:38:40 59° W 04:40:42 69° SSW 04:53:50 10° SE visible
20 Feb 10.5 06:37:09 10° W 06:46:07 28° SW 06:57:16 10° SSE visible
21 Feb 11.1 02:08:41 14° E 02:08:41 14° E 02:10:10 10° E visible
21 Feb 9.0 04:05:58 74° S 04:05:58 74° S 04:17:54 10° SE visible
21 Feb 10.2 06:03:14 15° W 06:10:38 32° SW 06:22:05 10° SSE visible
22 Feb 9.6 03:33:18 50° SE 03:33:18 50° SE 03:41:55 10° ESE visible
22 Feb 9.9 05:30:35 25° WSW 05:35:11 35° SW 05:46:45 10° SSE visible
22 Feb 9.7 20:37:56 10° SSW 20:38:22 12° SSW 20:38:22 12° SSW visible
23 Feb 10.4 03:00:43 30° ESE 03:00:43 30° ESE 03:05:56 10° ESE visible
23 Feb 9.6 04:57:59 37° SW 04:59:47 39° SW 05:11:17 10° SSE visible
23 Feb 8.7 20:03:30 10° SSW 20:05:48 23° S 20:05:48 23° S visible
24 Feb 11.0 02:28:09 16° ESE 02:28:09 16° ESE 02:29:56 10° ESE visible
24 Feb 9.5 04:25:26 43° SSW 04:25:26 43° SSW 04:35:44 10° SSE visible
24 Feb 10.7 06:25:02 10° WSW 06:29:40 13° SW 06:34:51 10° SSW visible
24 Feb 8.4 19:29:08 10° SSW 19:32:41 22° SE 19:33:13 22° SE visible
25 Feb 9.9 03:52:54 35° SSE 03:52:54 35° SSE 04:00:07 10° SE visible
25 Feb 10.5 05:50:12 12° WSW 05:54:17 16° SW 06:00:42 10° S visible
25 Feb 8.9 18:54:51 10° S 18:58:00 18° SE 19:00:36 11° ESE visible
25 Feb 9.5 20:56:38 10° WSW 20:57:53 19° WSW 20:57:53 19° WSW visible
